Shawbury, United Kingdom

5:49 PM BST on August 31, 2016 (GMT +0100)
Shawbury Air Base

Weather History for EGOS - November, 2012

Change the Weather History Date:

Friday, November 30, 2012

  Actual Average Record
Temperature  
Mean Temperature 33 °F -  
Max Temperature 40 °F 43 °F 59 °F (2001)
Min Temperature 26 °F 33 °F 26 °F (2010)
Degree Days  
Heating Degree Days 32    
Moisture  
Dew Point 33 °F    
Average Humidity 94    
Maximum Humidity 100    
Minimum Humidity 83    
Precipitation  
Precipitation 0.00 in - - ()
Sea Level Pressure  
Sea Level Pressure 29.88 in    
Wind  
Wind Speed 3 mph ()    
Max Wind Speed 7 mph    
Max Gust Speed -    
Visibility 6.0 miles    
Events Fog , Rain    
Averages and records for this station are not official NWS values.
T = Trace of Precipitation, MM = Missing Value Source: Averaged Metar Reports

Daily Weather History Graph

Daily Weather History Graph

Search for Another Location

Airport or City:

Trip Planner

Search our weather history database for the weather conditions in past years. The results will help you decide how hot, cold, wet, or windy it might be!

Date:

Astronomy

Nov. 30, 2012 Rise Set
Actual Time 7:59 AM GMT 3:59 PM GMT
Civil Twilight 7:18 AM GMT 4:40 PM GMT
Nautical Twilight 6:34 AM GMT 5:23 PM GMT
Astronomical Twilight 5:53 AM GMT 6:05 PM GMT
Moon 5:42 PM GMT (11/30) 9:20 AM GMT (11/30)
Length of Visible Light 9h 21m
Length of Day
8h 00m
Full, 97% of the Moon is Illuminated
Nov 30
Full
Dec 6
Last Quarter
Dec 13
New
Dec 20
First Quarter
Dec 28
Full

Hourly Weather History & Observations

Time (GMT) Temp. Windchill Dew Point Humidity Pressure Visibility Wind Dir Wind Speed Gust Speed Precip Events Conditions
12:50 AM 32.0 °F 25.6 °F 30.2 °F 93% 29.83 in 6.2 mi WSW 6.9 mph - N/A   Mostly Cloudy
1:50 AM 32.0 °F 28.7 °F 32.0 °F 100% 29.83 in 6.2 mi WSW 3.5 mph - N/A   Scattered Clouds
2:50 AM 34 °F - 32 °F 90% 29.85 in 16 mi SSW 3.5 mph - -   Scattered Clouds
2:50 AM 33.8 °F 30.8 °F 32.0 °F 93% 29.83 in 6.2 mi SSW 3.5 mph - N/A   Mostly Cloudy
3:50 AM 33.8 °F - 32.0 °F 93% 29.83 in 6.2 mi South 2.3 mph - N/A   Mostly Cloudy
4:50 AM 33.8 °F 30.8 °F 32.0 °F 93% 29.83 in 6.2 mi WSW 3.5 mph - N/A   Mostly Cloudy
5:50 AM 32 °F - 31 °F 97% 29.84 in 12 mi SW 3.5 mph - -  
5:50 AM 32.0 °F 28.7 °F 32.0 °F 100% 29.83 in 6.2 mi SW 3.5 mph - N/A   Scattered Clouds
6:50 AM 32.0 °F 25.6 °F 30.2 °F 93% 29.83 in 6.2 mi West 6.9 mph - N/A   Scattered Clouds
7:50 AM 33.8 °F 30.8 °F 32.0 °F 93% 29.83 in 6.2 mi WSW 3.5 mph - N/A   Mostly Cloudy
8:50 AM 35 °F - 33 °F 92% 29.86 in 25 mi NE 1.2 mph - -   Partly Cloudy
8:50 AM 35.6 °F - 33.8 °F 93% 29.83 in 6.2 mi NE 1.2 mph - N/A   Mostly Cloudy
9:18 AM 35.6 °F - 33.8 °F 93% 29.86 in 6.2 mi SSE 1.2 mph - N/A   Mostly Cloudy
9:50 AM 37.4 °F - 33.8 °F 87% 29.86 in 6.2 mi WSW 2.3 mph - N/A   Mostly Cloudy
10:50 AM 39.2 °F 34.2 °F 35.6 °F 87% 29.86 in 6.2 mi West 6.9 mph - N/A   Mostly Cloudy
11:50 AM 39 °F - 36 °F 83% 29.88 in 19 mi WSW 2.3 mph - -   Mostly Cloudy
11:50 AM 39.2 °F - 35.6 °F 87% 29.86 in 6.2 mi WSW 2.3 mph - N/A   Mostly Cloudy
12:50 PM 39.2 °F 35.9 °F 37.4 °F 93% 29.86 in 6.2 mi WSW 4.6 mph - N/A Rain Light Rain
1:26 PM 41.0 °F 39.0 °F 37.4 °F 87% 29.86 in 6.2 mi WSW 3.5 mph - N/A   Mostly Cloudy
1:50 PM 39.2 °F 37.0 °F 37.4 °F 93% 29.86 in 6.2 mi WSW 3.5 mph - N/A   Mostly Cloudy
2:50 PM 39 °F - 36 °F 87% 29.89 in 16 mi NNW 3.5 mph - -   Partly Cloudy
2:50 PM 39.2 °F 37.0 °F 37.4 °F 93% 29.86 in 6.2 mi NNW 3.5 mph - N/A   Mostly Cloudy
3:50 PM 35.6 °F 32.8 °F 32.0 °F 87% 29.89 in 6.2 mi West 3.5 mph - N/A Fog Shallow Fog
4:50 PM 33.8 °F - 33.8 °F 100% 29.89 in 6.2 mi NNE 1.2 mph - N/A Fog Shallow Fog
5:50 PM 31 °F - 31 °F 100% 29.93 in 2 mi NW 3.5 mph - - Fog Fog
5:50 PM 32.0 °F 28.7 °F 32.0 °F 100% 29.89 in - NW 3.5 mph - N/A   Partly Cloudy
6:50 PM 30.2 °F 26.7 °F 30.2 °F 100% 29.92 in 2.8 mi NNW 3.5 mph - N/A   Unknown
7:50 PM 28.4 °F - 28.4 °F 100% 29.92 in 0.1 mi WSW 1.2 mph - N/A Fog Fog
8:50 PM 29 °F - 29 °F 100% 29.97 in 0 mi NE 1.2 mph - - Fog Fog
8:50 PM 30.2 °F - 30.2 °F 100% 29.95 in 0.3 mi NE 1.2 mph - N/A Fog Fog
9:50 PM 28.4 °F - 28.4 °F 100% 29.95 in 0.1 mi WSW 2.3 mph - N/A Fog Fog
10:50 PM 26.6 °F - 26.6 °F 100% 29.95 in 0.4 mi WSW 1.2 mph - N/A Fog Fog
11:50 PM 31 °F - 31 °F 97% 29.98 in 2 mi South 3.5 mph - - Fog Fog
11:50 PM 30.2 °F 26.7 °F 30.2 °F 100% 29.95 in 2.5 mi South 3.5 mph - N/A   Scattered Clouds